ZAREMBO AK US current weather conditions

sailwx.info

Wind from 005 at 6 knots gusting 10

Air temperature 2.8° C
Dewpoint 2.6° C

Last reported at 2015-Apr-01 13:55 UTC.
Time now 2015-Apr-01 16:33 UTC

Location: N 56°18' W 132°51'.
View on Google Maps.

See reports from other nearby stations

  
Tides and Currents Weather Stations Pressure Air Temp Water Temp Dewpoint Dewpoint Depression Visibility Wind Speed Wind Dir Waves Ship Positions
date/time (UTC)wind fromknots sea level pressurealtimeterstation pressurevisibilityair tempwater tempwave heightnotes
2015-Apr-01 13:55 005 6 gusting 10 2.8
2015-Apr-01 12:55 003 6 gusting 12 2.8
2015-Apr-01 11:55 354 6 gusting 22 2.8
2015-Apr-01 10:55 352 12 gusting 18 3.3
2015-Apr-01 09:55 335 7 gusting 13 3.3
2015-Apr-01 08:55 317 6 gusting 12 3.3
2015-Apr-01 07:55 302 6 gusting 13 3.3
2015-Apr-01 06:55 323 6 gusting 12 3.3
2015-Apr-01 05:55 308 6 gusting 13 3.3
2015-Apr-01 04:55 314 5 gusting 13 3.3
2015-Apr-01 03:55 326 7 gusting 14 3.3
2015-Apr-01 02:55 328 9 gusting 15 3.3
2015-Apr-01 01:55 340 8 gusting 19 3.9
2015-Apr-01 00:55 341 7 gusting 19 4.4
2015-Mar-31 23:55 327 9 gusting 25 4.4
2015-Mar-31 22:55 331 6 gusting 14 5.6
2015-Mar-31 21:55 338 7 gusting 17 6.1
2015-Mar-31 20:55 337 8 gusting 16 5.6
2015-Mar-31 19:55 330 6 gusting 13 5.0
2015-Mar-31 18:55 326 6 gusting 12 3.9
2015-Mar-31 17:55 317 5 gusting 10 5.0
2015-Mar-31 16:55 326 5 gusting 9 2.8
2015-Mar-31 15:55 150 0 gusting 8 2.2
2015-Mar-31 14:55 347 4 gusting 11 2.2
2015-Mar-31 13:55 003 6 gusting 12 2.2
2015-Mar-31 12:55 316 2 gusting 13 1.7
2015-Mar-31 11:55 350 9 gusting 15 2.2
2015-Mar-31 10:55 335 3 gusting 6 2.2
2015-Mar-31 09:55 290 1 gusting 5 2.2
2015-Mar-31 08:55 304 1 gusting 6 1.7
2015-Mar-31 07:55 355 4 gusting 8 1.7
2015-Mar-31 06:55 005 6 gusting 13 1.7
2015-Mar-31 05:55 008 7 gusting 16 0.6
2015-Mar-31 04:55 354 8 gusting 17 1.7
2015-Mar-31 03:55 008 8 gusting 16 2.2
2015-Mar-31 02:55 009 12 gusting 22 2.2
2015-Mar-31 01:55 341 13 gusting 24 3.9
2015-Mar-31 00:55 284 6 gusting 20 5.0
2015-Mar-30 23:55 238 8 gusting 14 3.9
2015-Mar-30 22:55 230 10 gusting 20 3.9
2015-Mar-30 21:55 222 12 gusting 18 2.2
2015-Mar-30 20:55 233 9 gusting 18 1.7
2015-Mar-30 19:55 239 11 gusting 20 3.3
2015-Mar-30 18:55 233 7 gusting 16 4.4
2015-Mar-30 17:55 231 8 gusting 13 3.9
2015-Mar-30 16:55 219 6 gusting 13 3.3